Regional Weather Roundup
Issued by NWS Sioux Falls, SD

Home | Current Version | Previous Version | Text Only | Print | Product List | Glossary Off
Versions: 1 2 3 4 5 6 7 8 9 10 11 12 13 14 15 16 17 18 19 20 21 22 23 24 25 26 27 28 29 30 31 32 33 34 35 36 37 38 39 40 41 42 43 44 45 46 47 48 49 50

000
ASUS43 KFSD 112110
RWRFSD

WEATHER ROUNDUP FOR SE SOUTH DAKOTA/SW MINNESOTA/NW IOWA
NATIONAL WEATHER SERVICE SIOUX FALLS SD
300 PM CST MON DEC 11 2017

NOTE: "FAIR" INDICATES FEW OR NO CLOUDS BELOW 12,000 FEET WITH NO
SIGNIFICANT WEATHER AND OR OBSTRUCTIONS TO VISIBILITY.


SDZ038>040-050-052>070-112200-
SOUTHEAST SOUTH DAKOTA

CITY           SKY/WX    TMP DP  RH WIND       PRES   REMARKS
BROOKINGS      CLOUDY    29  22  75 N28G35    30.11R WCI  14
CHAMBERLAIN    CLOUDY    40  33  78 NW16      30.25R
HURON          MOSUNNY   35  25  66 N24G32    30.21R WCI  23
MADISON        CLOUDY    32  32 100 N25G32    30.12R WCI  19
MITCHELL       CLOUDY    38  30  73 N21       30.20R
SIOUX FALLS    CLOUDY    35  27  72 N31G39    30.11R WCI  22
WINNER         CLOUDY    40  32  73 NW25G35   30.26R
YANKTON        CLOUDY    38  31  76 NW26G33   30.14R
$$

MNZ071-072-080-081-089-090-097-098-112200-
SOUTHWEST MINNESOTA

CITY           SKY/WX    TMP DP  RH WIND       PRES   REMARKS
FAIRMONT       CLOUDY    31  28  89 NW28G35   29.96R WCI  17
JACKSON        CLOUDY    30  27  86 MISG      30.00R
LUVERNE        CLOUDY    32  25  74 N20G35    30.08R WCI  20
MARSHALL       CLOUDY    26  21  81 N26G38    30.09R WCI  10
MONTEVIDEO     CLOUDY    25  18  74 N30G38    30.11R WCI   8
PIPESTONE      CLOUDY    28  23  80 N21G37    30.06R WCI  15
REDWOOD FALLS  CLOUDY    29  22  75 NW22G37   30.05R WCI  15
TRACY          CLOUDY    27  22  82 NW31G38   30.08R WCI  11
WINDOM           N/A     28  18  64 NW28G39   30.01R WCI  13
WORTHINGTON    CLOUDY    28  24  85 N33G40    30.03R WCI  11
$$

IAZ001>003-012>014-020>022-031-032-NEZ013-014-SDZ071-112200-
NORTHWEST IOWA

CITY           SKY/WX    TMP DP  RH WIND       PRES   REMARKS
CHEROKEE       CLOUDY    35  28  76 N25G36    30.04R WCI  23
DENISON        CLOUDY    39  30  70 N28G38    30.01R
ESTHERVILLE    CLOUDY    30  28  92 NW30G41   29.98R WCI  15
LE MARS        CLOUDY    37  28  70 N22G37    30.08R
ORANGE CITY    CLOUDY    36  30  80 N18G30    30.05R
SHELDON        CLOUDY    32  27  80 N29G37    30.04R WCI  18
SIOUX CITY     CLOUDY    40  29  64 N30G41    30.06R
SPENCER        CLOUDY    32  26  78 N28G43    30.02R WCI  18
STORM LAKE     CLOUDY    34  27  75 N31G44    30.00R WCI  20
$$

ABBREVIATIONS USED IN REMARKS
   TC - TEMPERATURE IN CELSIUS
  WCI - WIND CHILL INDEX
   HX - HEAT INDEX
  VSB - VISIBILITY





USA.gov is the U.S. government's official web portal to all federal, state and local government web resources and services.